Simultaneous Nadir Overpasses (SNOs) Predictions

Prediction of SNOs between NOAA-20 and AQUA Satellite Orbit:

Table of predicted SNOs for the next 14.0 days since TLE Epoch: 8/17/2024
Index Date (NOAA-20) Time (NOAA-20) Lat,Lon (NOAA-20) SZA (NOAA-20 ) Date (AQUA) Time (AQUA) Lat,Lon (AQUA) SZA (AQUA ) Distance(km) Time Diff (sec)
1 08/17/2024 06:11:45 81.31, 13.19 74.64 08/17/2024 06:12:01 81.31, 13.07 74.64 1.95 16
2 08/17/2024 07:02:29 -81.31,-178.98 105.43 08/17/2024 07:01:22 -81.32,-179.01 105.39 0.80 67
3 08/19/2024 18:14:54 -81.30, 12.27 104.57 08/19/2024 18:14:59 -81.30, 12.20 104.56 1.34 5
4 08/22/2024 05:27:34 -81.16,-162.38 102.82 08/22/2024 05:28:48 -80.97,-161.96 102.96 23.07 74
5 08/22/2024 06:18:00 81.31, 11.60 76.23 08/22/2024 06:17:52 81.30, 11.60 76.23 0.53 8
6 08/24/2024 17:30:24 81.30,-157.05 77.11 08/24/2024 17:31:23 81.30,-156.86 77.05 3.27 59
7 08/24/2024 18:21:08 -81.31, 10.88 102.97 08/24/2024 18:20:44 -81.31, 11.07 102.98 3.06 24
8 08/27/2024 05:33:30 -81.31,-157.08 102.16 08/27/2024 05:34:12 -81.31,-157.21 102.17 2.15 42
9 08/27/2024 06:24:14 81.31, 10.29 77.85 08/27/2024 06:23:33 81.31, 10.37 77.86 1.29 41
10 08/29/2024 17:36:36 81.31,-157.83 78.69 08/29/2024 17:36:58 81.32,-157.75 78.67 1.38 22



Historial Predications of SNOs between NOAA-20 and AQUA
